Flag for Slovakia Weather past 2 weeks in Prešov, Slovakia

Now
73 °F

Sunny.


Feels Like: 77 °F
Forecast: 51 / 76 °F
Wind: 10 mph from Northeast

Location: Kosice - Barca

Current Time: Jun 30, 2015 at 7:16:12 PM

Latest Report: Jun 30, 2015 at 7:00 PM


Visibility: 10 mi

Pressure: 30.12 "Hg

Humidity: 44%

Dew point: 50 °F

Location of PrešovLocation

Historic Weather in Prešov — Graph

°F

Prešov temperature yesterday

Maximum temperature yesterday: 72 °F (at 3:00 PM)
Minimum temperature yesterday: 57 °F (at 3:00 AM)
Average temperature yesterday: 64 °F

Past Weeks' High & Low Weather Summary

 TemperatureHumidityPressure
High75 °F (Jun 27, 2:30 PM)94% (Jun 15, 8:30 PM)30.15 "Hg (Jun 15, 8:30 PM)
Low45 °F (Jun 22, 3:00 AM)36% (Jun 18, 1:30 PM)29.80 "Hg (Jun 15, 6:00 PM)
Average62 °F66%30.00 "Hg
* Reported Jun 15 6:00 PM — Jun 30 6:00 PM, Prešov, Weather by CustomWeather, © 2015

Note: Actual official high and low records may vary slightly from our data, if they occured in-between our weather recording intervals... More about our weather records

Advertising

Prešov weather history for previous 24 hours

 ConditionsComfort  
Time TempWeatherWind HumidityBarometerVisibility
6:00 PM
Tue, Jun 30
73 °FSunny.12 mph47%30.09 "Hg10 mi
5:00 PM73 °FSunny.10 mph47%30.12 "Hg10 mi
4:30 PM73 °FPassing clouds.10 mph47%30.12 "HgN/A
4:00 PM73 °FSunny.12 mph47%30.12 "Hg10 mi
3:00 PM73 °FSunny.12 mph50%30.12 "Hg10 mi
2:30 PM73 °FScattered clouds.13 mph44%30.12 "HgN/A
2:00 PM75 °FScattered clouds.9 mph44%30.12 "HgN/A
1:30 PM73 °FScattered clouds.10 mph47%30.12 "HgN/A
1:00 PM72 °FSunny.12 mph50%30.12 "Hg10 mi
12:30 PM73 °FScattered clouds.12 mph44%30.12 "HgN/A
12:00 PM73 °FScattered clouds.12 mph53%30.15 "HgN/A
11:30 AM72 °FPassing clouds.14 mph50%30.15 "HgN/A
11:00 AM70 °FScattered clouds.15 mph57%30.15 "HgN/A
10:30 AM70 °FPassing clouds.17 mph57%30.15 "HgN/A
10:00 AM68 °FPassing clouds.16 mph64%30.15 "HgN/A
9:30 AM68 °FPassing clouds.15 mph60%30.15 "HgN/A
9:00 AM68 °FSunny.18 mph60%30.15 "Hg10 mi
8:30 AM66 °FSunny.14 mph64%30.12 "Hg10 mi
8:00 AM64 °FSunny.9 mph73%30.12 "Hg10 mi
7:30 AM63 °FSunny.9 mph77%30.12 "Hg10 mi
7:00 AM61 °FPassing clouds.9 mph83%30.12 "HgN/A
6:30 AM59 °FSunny.6 mph88%30.12 "Hg10 mi
6:00 AM57 °FSunny.7 mph94%30.12 "Hg10 mi
5:00 AM55 °FClear.1 mph88%30.12 "Hg10 mi
4:30 AM59 °FClear.2 mph82%30.12 "Hg10 mi
4:00 AM59 °FClear.2 mph82%30.12 "Hg10 mi
3:30 AM57 °FClear.5 mph94%30.12 "Hg10 mi
3:00 AM59 °FClear.2 mph82%30.12 "Hg10 mi
2:30 AM57 °FClear.7 mph94%30.12 "Hg10 mi
2:00 AM59 °FClear.2 mph88%30.12 "Hg10 mi
1:30 AM59 °FClear.2 mph88%30.12 "Hg10 mi
1:00 AM59 °FClear.2 mph88%30.12 "Hg10 mi
12:30 AM59 °FClear.3 mph88%30.12 "Hg10 mi
11:30 PM
Mon, Jun 29
61 °FClear.7 mph88%30.12 "Hg10 mi
11:00 PM61 °FClear.7 mph88%30.12 "Hg10 mi
10:30 PM61 °FClear.6 mph88%30.15 "Hg10 mi
10:00 PM61 °FPassing clouds.3 mph88%30.12 "HgN/A
9:30 PM61 °FLight rain. Clear.5 mph88%30.12 "HgN/A
9:00 PM61 °FLight rain. Clear.3 mph88%30.12 "HgN/A
8:30 PM61 °FLight rain. Mostly cloudy.5 mph94%30.12 "HgN/A
8:00 PM61 °FLight rain. Mostly cloudy.10 mph94%30.12 "HgN/A
7:30 PM63 °FLight rain. Mostly cloudy.9 mph88%30.12 "HgN/A
7:00 PM63 °FLight rain. Clear.9 mph88%30.09 "HgN/A
Weather by CustomWeather, © 2015

See weather overviewHow to use our weather pages